sat.trackr.live / text

‹ back to catalog

STARLINK-2387

NORAD 47806 · 2021-018V

PAYLOAD ACTIVE UNKNOWN

§ Identity

Operator
Country
US
Launch date
2021-03-11
Launch site
AFETR
Launch vehicle
Mass (kg)
RCS (m²)

Purposes: comms

External: N2YO · Heavens-Above · Gunter

§ Orbital elements

Epoch: 2026-05-25T00:15:44.962848Z

Period
94.11 min
Inclination
53.1581°
Eccentricity
0.0001108
Mean motion
15.30200841 rev/d
Perigee alt
474.5 km
Apogee alt
476.0 km
Semi-major
6,853.3 km
B*
2.2226e-4
RAAN
247.9369°
Arg perigee
76.3362°
Mean anomaly
283.7762°
Rev number
28,847

§ Raw data

STARLINK-23871 47806U 21018V   26145.01093707  .00006229  00000+0  22226-3 0  99972 47806  53.1581 247.9369 0001108  76.3362 283.7762 15.30200841288475

JSON: /api/v1/satellites/47806 · /tle

For live sub-satellite position, see the globe view (requires WebGL).

§ Visibility from observer

Set your observer location to see the next 7 days of passes ≥ 10°. The values pass through the URL so the page stays shareable.

No JS? Fill the form by hand. The geolocation button needs JavaScript.